Temp
6 6 6 7 8 8 9 10 10 11 12 12 11 10 9 7 6 6 5 5 5 4 4 3 3 3 2 1 -0 -1 -0 -3 -3 -3 -3 -2 -5 -4 -2 -2 -2 -3 -3
5 6 7 7 7 8 9 10 10 11 12 12 10 9 9 7 6 6 5 5 5 4 4 4 3 3 2 1 -3 -2 -3 -1 -2 -4 -3 -5 -5 -3 -3 -3 -3 -3 -3
5 5 5 7 7 8 9 10 10 11 12 11 9 8 8 7 6 6 5 5 4 3 3 3 3 2 1 1 1 -1 -0 -3 -4 -3 -4 -6 -4 -3 -3 -3 -3 -3 -4
4 5 5 6 7 8 9 10 10 10 10 9 8 8 7 6 6 5 5 5 4 3 2 3 3 1 1 1 1 -1 -1 -3 -3 -3 -6 -4 -4 -4 -4 -4 -4 -4 -4
4 4 4 5 5 6 8 9 9 8 8 8 8 7 7 6 6 5 5 4 4 4 3 2 1 2 1 1 0 -1 -2 -4 -4 -6 -6 -5 -4 -4 -4 -4 -4 -4 -5
3 4 4 4 5 5 5 5 5 7 7 7 7 7 6 6 5 4 4 4 4 4 3 2 1 1 0 1 -1 -2 -3 -4 -5 -6 -5 -4 -5 -5 -5 -5 -5 -4 -4
1 2 3 3 4 4 4 5 4 4 5 6 6 6 5 5 4 4 3 3 4 3 2 1 0 -0 -0 -1 -2 -3 -4 -5 -7 -6 -5 -5 -5 -5 -5 -5 -5 -5 -5
0 1 1 3 3 4 4 3 3 3 4 4 4 4 4 4 4 4 3 3 3 2 1 1 -0 -0 -1 -2 -3 -4 -4 -7 -6 -6 -5 -5 -5 -5 -6 -6 -5 -5 -5
0 0 1 1 2 3 3 2 2 3 3 3 3 4 4 3 3 3 2 2 3 2 0 -0 -0 -1 -3 -3 -4 -4 -6 -7 -7 -6 -6 -6 -6 -6 -6 -6 -6 -5 -5
0 0 1 1 1 1 2 2 2 1 2 2 2 2 3 3 2 2 1 1 2 2 0 -0 -1 -2 -3 -4 -5 -6 -7 -7 -6 -6 -6 -6 -6 -6 -6 -6 -6 -6 -6
-0 0 1 1 1 1 1 1 2 0 2 2 2 2 2 2 1 1 1 2 2 0 -0 -0 -2 -3 -4 -5 -6 -8 -8 -7 -7 -6 -6 -6 -6 -6 -7 -7 -7 -6 -6
-1 -1 -0 0 1 2 1 1 1 0 -0 2 0 1 1 1 1 1 1 2 1 -0 -1 -3 -4 -5 -5 -5 -8 -8 -8 -8 -7 -7 -7 -7 -7 -7 -7 -7 -7 -7 -7
-2 -1 -1 -0 0 1 1 1 1 1 1 0 1 0 1 0 1 1 2 2 -1 -2 -4 -5 -5 -5 -5 -8 -9 -9 -9 -8 -7 -7 -7 -7 -7 -7 -7 -8 -7 -7 -8
-2 -1 -1 -2 -1 1 1 1 1 1 1 1 1 2 1 0 1 2 1 1 -1 -3 -5 -5 -5 -5 -8 -9 -10 -9 -8 -8 -7 -7 -7 -7 -7 -7 -8 -8 -8 -8 -8
-2 -2 -2 -2 -2 -0 -0 0 1 1 1 1 1 2 1 0 0 0 1 -0 -5 -5 -4 -5 -6 -6 -9 -10 -10 -9 -8 -8 -8 -8 -8 -7 -7 -8 -8 -8 -8 -8 -8
-3 -2 -3 -3 -2 -2 -0 -0 -0 -0 1 1 0 1 0 1 0 -1 -3 -5 -5 -5 -6 -6 -7 -9 -9 -10 -9 -9 -8 -9 -8 -8 -8 -8 -8 -8 -8 -8 -8 -8 -8
-3 -3 -3 -3 -2 -2 -2 -1 -1 -1 -0 -0 -0 -0 -1 -2 -2 -4 -5 -5 -5 -6 -6 -7 -9 -10 -11 -10 -10 -9 -11 -9 -8 -8 -8 -8 -8 -8 -8 -9 -8 -8 -8
-4 -4 -4 -3 -3 -3 -3 -3 -3 -2 -1 -0 -0 -1 -3 -4 -5 -5 -5 -6 -6 -7 -7 -9 -9 -11 -11 -11 -10 -11 -10 -9 -9 -9 -9 -9 -8 -8 -9 -9 -9 -9 -9
-4 -4 -4 -4 -4 -4 -4 -5 -4 -5 -4 -4 -3 -4 -6 -6 -6 -6 -6 -7 -7 -7 -8 -9 -11 -12 -12 -11 -11 -11 -10 -9 -9 -9 -9 -9 -9 -9 -9 -9 -9 -9 -9
-5 -5 -5 -5 -5 -5 -6 -6 -7 -6 -6 -5 -5 -6 -7 -6 -6 -6 -7 -8 -8 -9 -9 -11 -12 -13 -12 -12 -12 -10 -10 -10 -10 -10 -10 -10 -9 -9 -9 -9 -10 -10 -10
-6 -6 -7 -7 -7 -7 -7 -7 -7 -7 -7 -7 -7 -7 -6 -6 -6 -7 -8 -9 -9 -10 -11 -12 -13 -13 -12 -13 -12 -11 -10 -10 -10 -10 -10 -10 -10 -9 -9 -9 -10 -10 -10
-8 -8 -8 -8 -9 -9 -9 -9 -9 -8 -8 -8 -7 -7 -7 -8 -9 -9 -9 -9 -10 -12 -13 -13 -13 -13 -13 -12 -12 -11 -11 -11 -11 -11 -11 -10 -10 -10 -10 -10 -10 -10 -10
-9 -9 -9 -9 -9 -9 -9 -9 -9 -9 -9 -9 -9 -9 -9 -10 -11 -11 -12 -12 -13 -13 -13 -13 -13 -14 -14 -13 -13 -13 -12 -12 -11 -11 -11 -11 -11 -10 -10 -10 -10 -10 -11
-10 -10 -10 -10 -10 -10 -10 -10 -10 -11 -11 -11 -11 -12 -12 -12 -13 -13 -13 -13 -13 -13 -13 -14 -14 -14 -13 -14 -14 -13 -12 -12 -12 -12 -12 -12 -11 -11 -11 -11 -11 -11 -11
-11 -11 -11 -11 -11 -11 -11 -12 -12 -12 -12 -12 -12 -12 -13 -13 -13 -13 -13 -13 -13 -14 -14 -14 -14 -14 -14 -14 -13 -13 -13 -13 -13 -13 -13 -12 -12 -12 -12 -12 -11 -11 -11
-12 -12 -12 -12 -12 -12 -12 -12 -12 -12 -13 -13 -13 -13 -13 -13 -13 -14 -14 -14 -14 -14 -14 -14 -14 -14 -14 -14 -14 -14 -13 -13 -13 -13 -13 -13 -13 -13 -13 -13 -12 -12 -12
Height
3048 3046 3044 3044 3045 3046 3047 3048 3049 3051 3052 3053 3056 3055 3061 3065 3068 3070 3072 3072 3070 3069 3069 3069 3068 3067 3065 3065 3067 3067 3064 3063 3061 3060 3059 3055 3053 3053 3050 3044 3038 3032 3025
3036 3034 3032 3030 3031 3032 3033 3034 3035 3035 3037 3039 3040 3042 3048 3053 3057 3059 3061 3061 3061 3061 3061 3059 3058 3052 3053 3052 3053 3056 3055 3053 3051 3049 3049 3048 3046 3046 3042 3037 3031 3024 3017
3026 3024 3021 3017 3017 3017 3019 3020 3020 3021 3023 3023 3026 3031 3036 3042 3046 3049 3051 3052 3053 3052 3051 3050 3047 3046 3047 3051 3049 3043 3043 3044 3043 3043 3041 3041 3041 3038 3034 3029 3024 3017 3010
3016 3013 3010 3008 3005 3003 3004 3006 3008 3006 3006 3011 3015 3021 3026 3032 3035 3037 3041 3042 3044 3042 3043 3041 3042 3043 3041 3040 3037 3037 3037 3037 3036 3035 3034 3035 3033 3031 3028 3024 3020 3012 3007
3005 3003 3000 2998 2996 2993 2992 2992 2994 2995 2996 3000 3006 3011 3016 3021 3025 3028 3031 3033 3035 3033 3033 3032 3033 3034 3033 3031 3030 3029 3030 3030 3029 3028 3029 3028 3027 3025 3021 3016 3011 3008 3001
2995 2992 2990 2987 2986 2985 2983 2984 2983 2984 2987 2993 2997 3001 3005 3011 3016 3018 3021 3024 3024 3022 3023 3023 3022 3024 3023 3021 3021 3023 3022 3022 3022 3022 3023 3023 3021 3019 3015 3011 3006 2999 2992
2984 2981 2979 2978 2977 2977 2974 2974 2975 2976 2979 2983 2988 2993 2996 3001 3005 3008 3009 3014 3013 3012 3013 3013 3013 3012 3013 3014 3015 3014 3015 3016 3017 3018 3018 3018 3017 3014 3011 3006 3001 2995 2985
2976 2972 2970 2967 2967 2967 2968 2965 2967 2967 2972 2975 2980 2984 2986 2991 2994 2996 2999 3003 3004 3002 3003 3002 3004 3005 3005 3006 3008 3009 3010 3011 3013 3012 3014 3013 3011 3009 3005 3000 2995 2991 2985
2964 2963 2960 2958 2955 2956 2957 2959 2958 2958 2961 2966 2970 2974 2978 2981 2983 2987 2990 2991 2992 2992 2992 2993 2995 2996 2997 2999 3000 3002 3004 3007 3008 3009 3009 3008 3006 3003 2999 2995 2990 2983 2979
2953 2950 2950 2948 2946 2944 2945 2948 2948 2947 2953 2955 2958 2962 2966 2969 2972 2975 2977 2979 2982 2981 2982 2985 2986 2987 2989 2992 2994 2996 2998 3002 3004 3005 3005 3003 3001 2997 2993 2990 2986 2980 2971
2941 2939 2938 2936 2934 2934 2934 2934 2935 2936 2937 2939 2946 2949 2953 2957 2961 2963 2965 2967 2969 2973 2973 2975 2977 2980 2983 2985 2987 2990 2995 2998 3000 3000 3000 2998 2997 2993 2988 2984 2980 2976 2969
2929 2927 2925 2923 2921 2921 2921 2921 2923 2924 2923 2931 2924 2934 2941 2944 2948 2951 2953 2954 2959 2962 2964 2967 2968 2972 2977 2978 2982 2986 2989 2993 2994 2996 2996 2994 2994 2989 2986 2982 2977 2970 2963
2918 2916 2913 2910 2908 2908 2909 2909 2912 2917 2919 2919 2924 2919 2926 2923 2933 2940 2943 2946 2946 2951 2953 2957 2963 2968 2971 2973 2978 2980 2985 2988 2990 2992 2991 2991 2990 2988 2984 2980 2975 2969 2961
2906 2903 2900 2897 2895 2896 2896 2897 2899 2902 2908 2912 2915 2919 2917 2922 2926 2930 2935 2935 2939 2941 2949 2953 2956 2960 2964 2968 2971 2975 2979 2983 2986 2988 2987 2987 2986 2984 2981 2978 2974 2970 2963
2894 2892 2888 2886 2884 2883 2883 2884 2886 2889 2896 2902 2902 2909 2911 2914 2919 2923 2922 2923 2930 2937 2943 2946 2949 2953 2958 2962 2967 2972 2974 2977 2981 2983 2984 2983 2982 2980 2978 2975 2972 2968 2962
2882 2880 2878 2875 2873 2871 2871 2872 2875 2878 2885 2891 2892 2899 2904 2907 2912 2911 2914 2920 2928 2933 2936 2942 2945 2948 2952 2958 2963 2968 2970 2973 2975 2979 2980 2979 2978 2976 2974 2972 2968 2965 2959
2871 2869 2867 2865 2863 2861 2858 2859 2862 2869 2874 2880 2882 2889 2893 2898 2903 2908 2913 2918 2923 2925 2930 2936 2941 2944 2949 2955 2959 2962 2966 2969 2971 2973 2975 2975 2974 2973 2971 2969 2966 2962 2957
2861 2859 2857 2856 2853 2850 2848 2849 2853 2858 2865 2868 2873 2878 2883 2888 2897 2902 2907 2912 2914 2919 2926 2932 2936 2941 2946 2950 2953 2957 2962 2965 2966 2968 2970 2970 2970 2970 2968 2966 2963 2961 2955
2851 2849 2848 2846 2844 2841 2841 2840 2847 2851 2856 2860 2864 2869 2876 2885 2892 2898 2902 2906 2911 2918 2923 2927 2933 2938 2942 2945 2948 2953 2957 2959 2961 2963 2964 2965 2966 2965 2965 2963 2961 2959 2954
2844 2841 2839 2838 2838 2837 2836 2840 2845 2849 2852 2856 2859 2864 2872 2881 2887 2892 2897 2903 2909 2914 2919 2925 2929 2933 2938 2941 2945 2948 2951 2953 2956 2958 2959 2960 2961 2961 2961 2960 2958 2955 2953
2839 2838 2836 2836 2836 2837 2840 2844 2847 2850 2854 2857 2862 2868 2875 2882 2887 2892 2897 2901 2906 2910 2917 2923 2925 2929 2933 2937 2940 2943 2945 2948 2950 2952 2954 2955 2956 2957 2956 2956 2955 2953 2952
2841 2840 2839 2840 2841 2842 2844 2847 2851 2855 2861 2866 2869 2873 2879 2884 2888 2892 2896 2899 2904 2909 2914 2917 2921 2924 2929 2932 2935 2937 2940 2942 2944 2947 2948 2949 2950 2951 2951 2951 2950 2949 2950
2846 2845 2845 2846 2848 2850 2852 2855 2859 2864 2867 2871 2874 2878 2881 2885 2889 2892 2895 2899 2902 2906 2910 2913 2916 2920 2924 2926 2929 2932 2934 2935 2937 2939 2940 2942 2943 2945 2946 2946 2945 2945 2945
2856 2856 2855 2855 2856 2858 2860 2862 2866 2870 2872 2874 2877 2879 2882 2885 2887 2890 2893 2897 2900 2903 2906 2909 2912 2915 2917 2920 2922 2925 2926 2927 2930 2930 2932 2934 2935 2937 2938 2938 2939 2940 2940
2866 2865 2864 2865 2866 2866 2868 2870 2872 2873 2874 2876 2878 2880 2882 2885 2887 2889 2891 2894 2897 2900 2902 2905 2906 2908 2911 2913 2915 2916 2917 2918 2920 2921 2922 2924 2926 2928 2929 2930 2932 2932 2932
2872 2872 2871 2872 2872 2873 2874 2874 2875 2876 2878 2879 2880 2881 2883 2884 2886 2888 2889 2891 2893 2894 2896 2898 2899 2900 2901 2903 2904 2905 2907 2908 2909 2910 2911 2912 2914 2916 2918 2920 2921 2923 2924
Wind_Speed
38 41 43 45 45 45 42 44 46 46 49 46 40 35 37 39 38 39 39 39 34 30 36 44 50 53 51 50 49 48 56 48 50 52 47 38 26 29 31 33 36 37 40
37 37 41 44 39 47 46 43 47 48 48 48 41 33 38 39 37 38 36 33 33 35 37 38 51 60 57 52 47 47 53 53 54 53 41 23 22 27 29 30 33 36 38
41 38 37 41 38 42 48 48 48 49 49 47 36 34 38 37 36 36 34 31 34 33 33 41 47 53 55 49 53 61 51 51 51 47 23 18 21 24 25 28 31 35 37
36 34 34 31 37 40 44 46 47 47 43 39 33 36 36 36 37 37 31 31 32 32 32 34 43 33 32 44 50 49 51 48 37 33 14 17 20 21 23 26 28 34 35
37 35 34 33 28 34 32 36 37 35 29 29 37 37 38 37 38 35 34 34 37 30 29 27 25 41 45 48 49 47 43 35 30 18 13 16 19 20 25 28 31 33 36
33 36 35 34 31 26 22 20 20 25 25 33 38 37 36 36 35 30 32 34 32 33 29 36 24 27 31 43 44 36 31 31 20 12 12 15 18 22 25 28 31 36 38
35 34 32 36 35 31 25 20 19 21 28 33 34 35 33 33 32 30 33 36 31 27 30 30 37 32 34 39 32 29 28 26 9 10 13 15 19 22 25 28 30 34 39
37 37 35 34 38 35 35 22 24 22 24 27 30 33 35 33 31 33 33 34 32 27 26 33 39 36 36 28 26 24 26 14 10 11 15 16 19 23 26 28 29 30 34
42 40 40 37 36 39 44 40 24 25 25 26 28 27 28 29 30 33 36 32 31 35 26 27 33 38 30 25 22 25 18 13 11 13 14 16 20 23 24 26 29 32 33
42 43 42 41 38 36 36 44 36 27 31 29 29 25 26 29 32 31 29 27 31 32 27 28 35 34 25 22 24 20 17 13 12 12 13 16 20 23 23 25 27 30 36
41 42 42 42 42 38 37 40 38 44 39 28 28 31 30 33 34 27 33 30 35 35 29 36 34 26 24 25 22 19 15 13 12 11 12 15 18 21 23 25 28 29 31
44 44 41 42 44 43 38 36 38 31 33 46 36 28 34 35 34 29 32 34 38 38 34 35 28 26 27 24 20 16 15 13 11 11 11 13 17 19 21 23 26 30 33
44 43 43 41 43 39 40 38 38 39 29 27 32 39 42 38 33 32 38 41 42 43 33 28 26 26 24 20 20 19 14 13 12 10 9 11 15 17 18 20 22 27 30
39 41 40 41 39 36 37 36 42 40 39 34 29 28 40 29 32 32 32 45 41 39 30 24 27 26 21 23 23 17 16 14 12 10 7 10 14 16 16 16 18 20 24
35 39 40 37 35 37 36 36 39 40 44 41 34 38 31 29 30 28 44 45 39 27 23 29 29 24 26 26 21 18 17 14 11 9 7 9 12 15 15 15 17 19 21
34 38 36 32 32 32 37 36 37 37 44 45 27 27 27 30 34 48 43 29 22 24 28 29 26 25 24 23 20 19 16 14 12 8 6 7 11 14 14 15 17 20 21
36 38 35 34 34 32 27 29 28 28 30 28 24 23 24 24 37 37 27 25 26 30 31 27 27 24 25 22 21 19 16 15 13 9 6 6 9 13 14 15 17 19 20
36 34 32 31 30 25 20 25 23 28 25 28 25 25 22 23 34 33 30 28 30 33 29 27 26 29 25 22 21 20 17 16 13 9 6 5 8 12 14 15 16 17 18
29 31 30 27 26 18 12 15 17 28 24 17 18 23 22 32 30 28 27 28 29 30 26 26 32 29 23 22 22 18 17 16 13 10 8 6 8 11 14 15 15 16 16
27 23 20 15 9 6 3 9 16 12 11 15 20 29 35 32 28 28 28 28 29 28 28 30 33 26 23 23 18 19 19 17 15 12 10 8 8 11 14 15 15 15 14
14 8 5 10 12 11 8 6 3 7 13 21 29 27 25 21 22 24 25 29 30 32 27 30 30 24 24 18 19 19 18 17 16 14 12 11 10 12 14 15 16 15 14
8 12 15 16 15 13 12 10 7 9 15 19 22 22 18 17 19 21 24 27 25 23 28 29 26 23 17 18 18 19 19 18 17 16 15 15 14 14 16 16 16 16 15
17 17 17 15 14 14 13 13 11 11 13 12 11 12 13 13 17 19 21 23 26 26 25 24 20 18 20 19 19 20 21 21 20 20 19 19 18 18 18 18 17 17 16
19 18 17 17 16 14 13 13 13 14 14 13 14 15 19 23 26 27 26 24 22 21 20 19 20 21 21 20 21 23 25 25 23 23 22 22 23 22 22 21 20 20 20
16 15 15 13 11 10 9 11 11 12 12 14 17 19 20 21 21 21 20 19 19 18 19 20 20 21 23 25 26 27 27 27 27 26 26 27 28 27 27 25 24 24 24
18 17 16 14 13 11 9 7 6 4 6 8 10 11 12 12 13 13 14 16 18 20 22 25 27 28 29 29 30 31 31 32 32 32 32 33 33 32 31 30 29 28 29
Wind_Direction
289 280 276 268 268 266 256 260 263 259 258 255 245 244 246 242 251 254 258 271 265 267 265 261 260 255 249 251 255 258 263 268 271 276 291 281 291 305 310 311 314 318 318
299 294 284 278 271 268 256 263 258 254 254 254 242 234 237 236 246 254 261 264 265 265 269 276 271 262 257 251 253 259 268 270 274 275 291 286 303 306 311 315 320 322 323
291 299 291 280 277 269 262 263 257 252 250 247 237 225 233 235 246 252 258 261 269 278 278 279 287 272 267 278 277 267 272 272 279 291 276 298 303 309 316 323 327 329 327
286 290 289 288 279 269 261 260 259 250 247 243 225 220 228 235 245 249 255 264 271 282 280 283 281 269 286 292 277 280 276 283 288 278 289 300 305 313 318 323 330 333 330
286 283 283 285 286 273 256 252 254 252 246 232 217 216 228 235 244 249 252 261 266 284 276 279 293 278 282 289 283 282 293 293 276 267 285 299 303 311 317 324 330 334 335
277 280 279 278 280 283 251 265 248 236 228 221 215 225 230 240 246 248 257 263 270 281 274 289 272 289 292 287 284 293 283 278 259 268 290 295 300 311 318 323 328 332 334
282 283 282 276 274 276 261 255 248 229 218 216 223 227 235 242 248 250 252 261 270 276 282 291 261 298 293 281 282 278 274 265 247 269 284 289 299 311 317 323 328 331 336
290 287 285 278 273 258 273 260 235 221 223 228 234 239 241 247 243 249 249 260 265 271 275 281 257 287 278 275 272 266 269 240 246 263 273 287 305 314 321 322 326 334 337
290 288 291 289 276 274 256 264 252 231 232 234 240 243 243 239 246 249 255 255 266 258 276 277 272 276 269 264 254 262 238 226 240 257 275 297 309 317 322 326 327 333 336
285 283 287 288 282 275 267 253 255 256 242 229 229 234 235 236 240 249 252 254 264 268 272 274 268 263 256 243 259 235 221 225 240 257 281 302 314 320 324 327 330 335 336
281 282 283 286 284 276 266 258 260 267 257 252 234 230 230 229 236 242 250 261 251 259 270 266 256 248 231 244 237 215 211 224 241 264 288 308 317 321 327 331 332 335 341
281 286 284 283 280 276 276 257 253 260 263 267 272 233 232 238 239 242 256 248 247 249 250 249 237 224 234 241 198 201 208 218 238 263 289 313 320 323 328 331 333 337 343
287 290 287 284 282 272 271 255 247 248 250 252 253 258 256 263 246 251 249 251 245 242 238 225 221 235 235 200 193 198 205 220 237 259 291 310 316 322 327 334 337 341 345
293 293 287 287 283 272 262 246 241 237 240 242 239 250 261 252 249 246 256 246 246 237 217 220 229 220 197 194 200 191 206 217 236 257 280 307 318 327 329 332 338 342 346
292 292 288 285 284 276 261 248 236 234 240 245 242 244 250 249 243 259 239 235 225 210 224 217 215 216 197 201 187 199 206 213 228 249 277 304 323 331 330 335 342 344 348
296 286 286 285 285 268 249 247 241 232 232 242 229 229 236 251 257 238 226 210 209 220 210 211 203 199 207 184 191 203 203 210 225 237 267 308 333 337 338 341 346 347 351
291 287 283 284 286 274 264 225 220 218 212 212 213 224 244 247 248 226 202 211 215 208 205 206 197 204 181 188 195 199 203 216 222 227 255 306 332 334 339 344 346 347 352
289 288 285 282 279 278 270 257 229 231 216 208 206 220 217 217 216 209 216 214 209 207 203 198 205 186 185 194 198 199 212 221 221 225 249 296 320 325 335 343 346 345 353
289 286 279 275 276 269 253 268 243 237 234 231 226 203 188 195 203 210 207 213 216 210 207 208 190 184 191 199 199 203 217 224 226 230 245 273 304 317 328 337 342 348 352
293 283 271 261 231 179 153 270 248 234 217 209 197 183 186 199 203 205 209 210 211 208 209 190 188 186 197 201 204 215 221 229 234 238 249 267 291 310 318 327 333 345 344
283 251 167 117 98 92 96 104 130 168 170 176 179 187 199 200 215 210 208 208 204 205 195 190 190 193 200 202 217 223 233 238 243 247 255 267 283 297 308 313 322 333 334
87 93 94 89 83 79 81 83 111 158 180 189 189 189 194 199 202 208 215 210 205 194 196 196 196 198 206 221 225 234 246 250 251 254 259 266 274 283 292 301 308 314 319
68 73 80 85 93 104 114 122 131 147 162 168 175 184 187 195 201 203 197 190 191 196 196 198 203 214 222 227 235 246 253 254 255 257 260 265 270 276 283 290 295 296 301
71 74 79 85 91 100 112 126 140 147 155 167 177 182 179 179 181 185 192 198 201 202 208 215 225 232 236 239 246 252 256 260 261 262 264 268 270 273 276 280 283 284 288
64 62 61 65 70 86 103 124 137 146 158 170 176 181 185 188 191 195 201 209 217 224 232 238 244 249 252 252 254 257 260 263 265 266 267 267 268 270 272 274 275 275 275
50 51 52 56 60 68 73 80 92 124 159 179 189 196 204 212 222 231 238 244 248 250 252 253 253 255 257 260 262 264 267 270 272 272 270 270 269 269 270 269 268 267 267